Location: Hylvaty SDH
(49.9612°N, 16.4057°E)
Time: 01:44:26
(UTC+01:00)

Transit 4A - Pass Details

Date: 12 August 2020
Orbit: 864 x 981 km, 66.8° (Epoch: 15 January)

Event Time Altitude Azimuth Distance (km) Brightness Sun altitude
Rises 18:30:26 0° 322° (NW) 3,639 11.7 15.8°
Reaches altitude 10° 18:32:59 10° 319° (NW) 2,704 11.2 15.4°
Maximum altitude 18:39:13 62° 241° (WSW) 1,094 9.0 14.4°
Drops below altitude 10° 18:45:30 10° 162° (SSE) 2,725 10.1 13.4°
Sets 18:48:05 0° 159° (SSE) 3,670 10.7 13.0°
